Location: Campillo
(40.8621°N, 4.2488°W)
Time: 12:22:20
(UTC+00:00)

Meteor 1-11 Rocket - Visible Passes

Search period start: 21 September 2021 00:00
Search period end: 01 October 2021 00:00
Orbit: 832 x 915 km, 81.2° (Epoch: 20 September)

Date Brightness Start Highest point End Pass type
(mag) Time Alt. Az. Time Alt. Az. Time Alt. Az.
21 Sep 5.8 03:57:27 10° NNE 04:02:33 29° ENE 04:07:34 10° SE visible
21 Sep 6.0 18:53:26 10° SW 18:58:30 30° WNW 19:03:43 10° N visible
22 Sep 5.7 03:52:12 10° N 03:57:22 30° ENE 04:02:27 10° SE visible
22 Sep 4.3 05:35:25 10° NNW 05:40:50 38° W 05:46:07 10° SSW visible
22 Sep 6.1 18:48:19 10° SW 18:53:20 29° WNW 18:58:27 10° NNW visible
23 Sep 5.6 03:46:57 10° N 03:52:11 31° ENE 03:57:19 10° SE visible
23 Sep 4.4 05:30:16 10° NNW 05:35:36 36° W 05:40:49 10° SSW visible
23 Sep 6.2 18:43:13 10° SW 18:48:10 28° WNW 18:53:13 10° NNW visible
24 Sep 5.5 03:41:42 10° N 03:47:00 33° ENE 03:52:12 10° SE visible
24 Sep 4.4 05:25:07 10° NNW 05:30:22 34° W 05:35:31 10° SSW visible
24 Sep 6.3 18:38:06 10° SW 18:42:59 27° WNW 18:47:57 10° NNW visible
25 Sep 5.4 03:36:27 10° N 03:41:49 34° ENE 03:47:04 10° SE visible
25 Sep 4.5 05:19:57 10° NNW 05:25:08 32° W 05:30:12 10° SSW visible
25 Sep 6.4 18:33:01 10° SW 18:37:48 25° WNW 18:42:40 10° NNW visible
26 Sep 5.3 03:31:13 10° N 03:36:38 36° ENE 03:41:56 10° SE visible
26 Sep 4.5 05:14:49 10° NNW 05:19:54 31° W 05:24:53 10° SSW visible
26 Sep 6.5 18:27:56 10° WSW 18:32:38 24° WNW 18:37:24 10° NNW visible
27 Sep 5.1 03:25:58 10° N 03:31:27 38° ENE 03:36:47 10° SE visible
27 Sep 4.6 05:09:41 10° NNW 05:14:40 29° W 05:19:33 10° SSW visible
27 Sep 6.5 18:22:51 10° WSW 18:27:27 23° WNW 18:32:08 10° NNW visible
28 Sep 5.0 03:20:44 10° N 03:26:15 40° ENE 03:31:38 10° SE visible
28 Sep 4.6 05:04:33 10° NNW 05:09:26 28° W 05:14:13 10° SW visible
29 Sep 4.9 03:15:30 10° N 03:21:04 41° ENE 03:26:29 10° SE visible
29 Sep 4.7 04:59:25 10° NNW 05:04:11 26° W 05:08:53 10° SW visible
30 Sep 4.8 03:10:16 10° N 03:15:53 44° ENE 03:21:19 10° SE visible
30 Sep 4.7 04:54:18 10° NW 04:58:57 25° W 05:03:31 10° SW visible
